Location: Crescent
(42.8242°N, 73.7329°W)
Time: 02:31:36
(UTC+00:00)

Explorer 7 - Pass Details

Date: 19 February 2026
Orbit: 430 x 541 km, 50.2° (Epoch: 13 March)

Event Time Altitude Azimuth Distance (km) Brightness Sun altitude
Rises 20:43:35 0° 267° (W) 2,431 11.2 17.2°
Reaches altitude 10° 20:45:48 10° 277° (W) 1,578 10.1 16.9°
Maximum altitude 20:49:05 34° 344° (NNW) 780 7.6 16.4°
Drops below altitude 10° 20:52:29 10° 51° (NE) 1,639 8.7 15.8°
Sets 20:54:50 0° 61° (ENE) 2,542 9.6 15.5°
